C/2019 T3 ( ATLAS )

Japanese version
Home page
Updated on January 23, 2020

---------------------------------------------------------------------

* Profile

Discovery Date October 6, 2019
Magnitude 18.9 mag
Discoverer Asteroid Terrestrial-Impact Last Alert System (ATLAS) search program

* Pictures

* Orbital Elements

Epoch 2021 Mar. 7.0 TT = JDT 2459280.5
T 2021 Mar. 2.71161 TT                                  Williams
q   5.9463061            (2000.0)            P               Q
z  +0.0002604      Peri.  112.28027     +0.60548718     +0.57393068
 +/-0.0000121      Node   139.52102     -0.19754063     -0.56271829
e   0.9984519      Incl.  121.86229     +0.77094939     -0.59493840
From 143 observations 2019 Jan. 17-2020 Jan. 2, mean residual 0".4.

* Magnitudes Graph

        m1 = -2.8 + 5 log d + 20.0 log r

---------------------------------------------------------------------

The orbital elements are published on M.P.E.C. 2020-A105.
The magnitudes graphs are made with Comet for Windows.

---------------------------------------------------------------------

Copyright(C) Seiichi Yoshida (comet@aerith.net). All rights reserved.